This demonstration page uses our WeatherBlox Daily Observations layout. Learn more.

Left ArrowRight Arrow

47.50024, -111.30081

Hourly Observations for March 30, 2015

Temp ( °F °C ) Dew Point ( °F °C ) Humidity (%) Winds ( mph kmh ) Pressure ( in mb ) Visibility ( mi km ) Precip ( " mm )
12:53 am 00:53 Clear 51 10.6 30 -1.1 44 44 SW 20 31 30.03 1017 10 16 0.00 0.00
1:53 am 01:53 Clear 50 10 30 -1.1 46 46 SW 15 24 30.04 1017 10 16 0.00 0.00
2:53 am 02:53 Clear 50 10 31 -0.6 48 48 WSW 15 24 30.03 1017 10 16 0.00 0.00
3:53 am 03:53 Clear 47 8.3 31 -0.6 54 54 WSW 12 19 30.04 1017 10 16 0.00 0.00
4:53 am 04:53 Clear 46 7.8 30 -1.1 54 54 WSW 10 17 30.04 1017 10 16 0.00 0.00
5:53 am 05:53 Clear 43 6.1 30 -1.1 60 60 WSW 13 20 30.07 1018 10 16 0.00 0.00
6:53 am 06:53 Clear 43 6.1 30 -1.1 60 60 SW 14 22 30.08 1019 10 16 0.00 0.00
7:53 am 07:53 Sunny 46 7.8 31 -0.6 56 56 SW 12 19 30.08 1019 10 16 0.00 0.00
8:53 am 08:53 Sunny 53 11.7 32 0 45 45 SW 14 22 30.07 1018 10 16 0.00 0.00
9:53 am 09:53 Mostly Cloudy 57 13.9 28 -2.2 33 33 SW 15 24 30.06 1018 10 16 0.00 0.00
10:53 am 10:53 Cloudy 59 15 23 -5 25 25 WSW 12 19 30.06 1018 10 16 0.00 0.00
11:53 am 11:53 Cloudy 61 16.1 25 -3.9 25 25 WSW 18 30 30.04 1017 10 16 0.00 0.00
12:53 pm 12:53 Sunny 64 17.8 27 -2.8 25 25 SW 20 31 30.01 1016 10 16 0.00 0.00
1:53 pm 13:53 Sunny 66 18.9 25 -3.9 21 21 WSW 14 22 29.99 1016 10 16 0.00 0.00
2:53 pm 14:53 Sunny 66 18.9 28 -2.2 24 24 SW 15 24 29.97 1015 10 16 0.00 0.00
3:53 pm 15:53 Sunny 67 19.4 26 -3.3 21 21 SW 15 24 29.94 1014 10 16 0.00 0.00
4:53 pm 16:53 Sunny 68 20 24 -4.4 19 19 SW 15 24 29.93 1013 10 16 0.00 0.00
5:53 pm 17:53 Sunny 66 18.9 27 -2.8 23 23 W 16 26 29.92 1013 10 16 0.00 0.00
6:53 pm 18:53 Sunny 60 15.6 30 -1.1 32 32 WSW 8 13 29.92 1013 10 16 0.00 0.00
7:53 pm 19:53 Clear 54 12.2 28 -2.2 37 37 SW 7 11 29.92 1013 10 16 0.00 0.00
8:53 pm 20:53 Clear 56 13.3 24 -4.4 29 29 WSW 12 19 29.90 1013 10 16 0.00 0.00
9:53 pm 21:53 Clear 51 10.6 26 -3.3 38 38 SSW 7 11 29.91 1013 10 16 0.00 0.00
10:53 pm 22:53 Clear 49 9.4 28 -2.2 44 44 SSW 9 15 29.89 1012 10 16 0.00 0.00
11:53 pm 23:53 Clear 52 11.1 27 -2.8 38 38 SSW 3 6 29.86 1011 10 16 0.00 0.00

Powered by AerisWeather